Terminal Aerodrome Forecast
Issued by NWS Central Illinois

Home | Current Version | Previous Version | Text Only | Print | Product List | Glossary On
Versions: 1 2 3 4 5 6 7 8 9 10 11 12 13 14
000
FTUS43 KILX 242326 AAA
TAFPIA
TAF AMD
KPIA 242326Z 2423/2518 18015G21KT P6SM VCTS SCT030CB BKN060
      TEMPO 2500/2501 VRB20G30KT 2SM TSRA BKN030CB
     FM250100 18015KT P6SM SCT030 BKN060
     FM250500 17016G23KT 5SM -SHRA VCTS BKN025CB
     FM251500 23015G23KT P6SM BKN025=

USA.gov is the U.S. government's official web portal to all federal, state and local government web resources and services.